Tracking 29495 objects as of 7-Sep-2024
HD Live streaming from Space Station
objects crossing your sky now

FENGYUN 1C DEB

Track FENGYUN 1C DEB now!
10-day predictions


NORAD ID: 31678
Int'l Code: 1999-025CCL
Perigee: 549.5 km
Apogee: 975.3 km
Inclination: 98.8 °
Period: 99.9 minutes
Semi major axis: 7133 km
RCS: 0.0167 m2 (small)
Launch date: May 10, 1999
Source: People's Republic of China (PRC)
Launch site: Taiyaun Space Center, China (TSC)

Note: This is SATELLITE DEBRIS
Your satellite tracking list
Your tracking list is empty




NASA's NSSDC Master Catalog

Two Line Element Set (TLE):
1 31678U 99025CCL 24250.06241714  .00013402  00000-0  24553-2 0  9999
2 31678  98.8029 333.8978 0298504 341.5618  17.4931 14.40976105901439
Source of the keplerian elements: AFSPC